Time,TemperatureF,DewpointF,PressureIn,WindDirection,WindDirectionDegrees,WindSpeedMPH,WindSpeedGustMPH,Humidity,HourlyPrecipIn,Conditions,Clouds,dailyrainin,SoftwareType,DateUTC
2013-05-07 00:00:00,57.2,55.8,29.89,NNE,28,0.0,0.0,95,0.00,,,1.00,Wunderground v.1.15,2013-05-07 04:00:00,
2013-05-07 00:10:00,56.9,55.5,29.89,NNE,28,0.0,0.0,95,0.00,,,0.00,Wunderground v.1.15,2013-05-07 04:10:00,
2013-05-07 00:20:00,56.6,55.2,29.89,NNE,28,0.0,0.0,95,0.00,,,0.00,Wunderground v.1.15,2013-05-07 04:20:00,
2013-05-07 00:30:00,56.4,55.0,29.89,NNE,28,0.0,0.0,95,0.00,,,0.00,Wunderground v.1.15,2013-05-07 04:30:00,
2013-05-07 00:40:00,56.2,54.8,29.89,NNE,28,0.0,0.0,95,0.00,,,0.00,Wunderground v.1.15,2013-05-07 04:40:00,
2013-05-07 00:50:00,55.9,54.5,29.90,NNE,28,0.0,0.0,95,0.00,,,0.00,Wunderground v.1.15,2013-05-07 04:50:00,
2013-05-07 01:00:00,55.8,54.4,29.89,NNE,28,0.0,0.0,95,0.00,,,0.00,Wunderground v.1.15,2013-05-07 05:00:00,
2013-05-07 01:10:00,55.5,54.1,29.89,NNE,28,0.0,0.0,95,0.00,,,0.00,Wunderground v.1.15,2013-05-07 05:10:00,
2013-05-07 01:20:00,55.3,53.9,29.88,NNE,28,0.0,0.0,95,0.00,,,0.00,Wunderground v.1.15,2013-05-07 05:20:00,
2013-05-07 01:30:00,55.0,53.6,29.88,NNE,28,0.0,0.0,95,0.00,,,0.00,Wunderground v.1.15,2013-05-07 05:30:00,
2013-05-07 01:40:00,54.8,53.4,29.88,NNE,28,0.0,0.0,95,0.00,,,0.00,Wunderground v.1.15,2013-05-07 05:40:00,
2013-05-07 01:50:00,54.5,53.1,29.88,NNE,28,0.0,0.0,95,0.00,,,0.00,Wunderground v.1.15,2013-05-07 05:50:00,
2013-05-07 02:00:00,54.3,52.9,29.88,NNE,28,0.0,0.0,95,0.00,,,0.00,Wunderground v.1.15,2013-05-07 06:00:00,
2013-05-07 02:10:00,54.0,52.6,29.88,NNE,28,0.0,0.0,95,0.00,,,0.00,Wunderground v.1.15,2013-05-07 06:10:00,
2013-05-07 02:20:00,53.6,52.2,29.87,NNE,28,0.0,0.0,95,0.00,,,0.00,Wunderground v.1.15,2013-05-07 06:20:00,
2013-05-07 02:30:00,53.3,51.9,29.87,NNE,28,0.0,0.0,95,0.00,,,0.00,Wunderground v.1.15,2013-05-07 06:30:00,
2013-05-07 02:40:00,53.0,51.6,29.87,NNE,28,0.0,0.0,95,0.00,,,0.00,Wunderground v.1.15,2013-05-07 06:40:00,
2013-05-07 02:50:00,52.9,51.5,29.86,NNE,28,0.0,0.0,95,0.00,,,0.00,Wunderground v.1.15,2013-05-07 06:50:00,
2013-05-07 03:00:00,52.7,51.3,29.86,NNE,28,0.0,0.0,95,0.00,,,0.00,Wunderground v.1.15,2013-05-07 07:00:00,
2013-05-07 03:10:00,52.4,51.0,29.87,NNE,28,0.0,0.0,95,0.00,,,0.00,Wunderground v.1.15,2013-05-07 07:10:00,
2013-05-07 03:20:00,52.1,50.7,29.86,NNE,28,0.0,0.0,95,0.00,,,0.00,Wunderground v.1.15,2013-05-07 07:20:00,
2013-05-07 03:30:00,51.7,50.3,29.86,NNE,28,0.0,0.0,95,0.00,,,0.00,Wunderground v.1.15,2013-05-07 07:30:00,
2013-05-07 03:40:00,51.4,50.0,29.86,NNE,28,0.0,0.0,95,0.00,,,0.00,Wunderground v.1.15,2013-05-07 07:40:00,
2013-05-07 03:50:00,51.0,49.6,29.86,NNE,28,0.0,0.0,95,0.00,,,0.00,Wunderground v.1.15,2013-05-07 07:50:00,
2013-05-07 04:00:00,50.8,49.4,29.86,NNE,28,0.0,0.0,95,0.00,,,0.00,Wunderground v.1.15,2013-05-07 08:00:00,
2013-05-07 04:10:00,50.3,48.9,29.86,NNE,28,0.0,0.0,95,0.00,,,0.00,Wunderground v.1.15,2013-05-07 08:10:00,
2013-05-07 04:20:00,50.0,48.6,29.86,NNE,28,0.0,0.0,95,0.00,,,0.00,Wunderground v.1.15,2013-05-07 08:20:00,
2013-05-07 04:30:00,49.7,48.3,29.86,NNE,28,0.0,0.0,95,0.00,,,0.00,Wunderground v.1.15,2013-05-07 08:30:00,
2013-05-07 04:40:00,49.2,47.8,29.86,NNE,28,0.0,0.0,95,0.00,,,0.00,Wunderground v.1.15,2013-05-07 08:40:00,
2013-05-07 04:50:00,48.9,47.5,29.86,NNE,28,0.0,0.0,95,0.00,,,0.00,Wunderground v.1.15,2013-05-07 08:50:00,
2013-05-07 05:00:00,48.7,47.3,29.86,NNE,28,0.0,0.0,95,0.00,,,0.00,Wunderground v.1.15,2013-05-07 09:00:00,
2013-05-07 05:10:00,48.6,47.2,29.86,NNE,28,0.0,0.0,95,0.00,,,0.00,Wunderground v.1.15,2013-05-07 09:10:00,
2013-05-07 05:20:00,48.4,47.0,29.87,NNE,28,0.0,0.0,95,0.00,,,0.00,Wunderground v.1.15,2013-05-07 09:20:00,
2013-05-07 05:30:00,48.3,46.9,29.86,NNE,28,0.0,0.0,95,0.00,,,0.00,Wunderground v.1.15,2013-05-07 09:30:00,
2013-05-07 05:40:00,48.4,47.0,29.87,NNE,28,0.0,0.0,95,0.00,,,0.00,Wunderground v.1.15,2013-05-07 09:40:00,
2013-05-07 05:50:00,48.5,47.1,29.87,NNE,28,0.0,0.0,95,0.00,,,0.00,Wunderground v.1.15,2013-05-07 09:50:00,
2013-05-07 06:00:00,48.3,46.9,29.86,NNE,28,0.0,0.0,95,0.00,,,0.00,Wunderground v.1.15,2013-05-07 10:00:00,
2013-05-07 06:10:00,48.3,46.9,29.88,East,80,0.0,0.0,95,0.00,,,0.00,Wunderground v.1.15,2013-05-07 10:10:00,
2013-05-07 06:20:00,48.4,47.0,29.88,East,79,0.0,0.0,95,0.00,,,0.00,Wunderground v.1.15,2013-05-07 10:20:00,
2013-05-07 06:30:00,48.5,47.1,29.87,East,80,0.0,0.0,95,0.00,,,0.00,Wunderground v.1.15,2013-05-07 10:30:00,
2013-05-07 06:40:00,48.9,47.5,29.88,NNW,348,0.0,0.0,95,0.00,,,0.00,Wunderground v.1.15,2013-05-07 10:40:00,
2013-05-07 06:50:00,49.3,48.2,29.87,NNW,348,0.0,0.0,96,0.00,,,0.00,Wunderground v.1.15,2013-05-07 10:50:00,
2013-05-07 07:00:00,49.7,48.3,29.88,North,5,0.0,0.0,95,0.00,,,0.00,Wunderground v.1.15,2013-05-07 11:00:00,
2013-05-07 07:10:00,49.9,48.8,29.88,SE,124,0.0,0.0,96,0.00,,,0.00,Wunderground v.1.15,2013-05-07 11:10:00,
2013-05-07 07:20:00,50.4,49.3,29.88,SE,124,0.0,0.0,96,0.00,,,0.00,Wunderground v.1.15,2013-05-07 11:20:00,
2013-05-07 07:30:00,51.0,49.9,29.88,ESE,123,0.0,0.0,96,0.00,,,0.00,Wunderground v.1.15,2013-05-07 11:30:00,
2013-05-07 07:40:00,51.5,50.4,29.88,SE,124,0.0,0.0,96,0.00,,,0.00,Wunderground v.1.15,2013-05-07 11:40:00,
2013-05-07 07:50:00,52.1,51.0,29.88,SE,124,0.0,0.0,96,0.00,,,0.00,Wunderground v.1.15,2013-05-07 11:50:00,
2013-05-07 08:00:00,52.8,51.7,29.88,SW,219,0.0,0.0,96,0.00,,,0.00,Wunderground v.1.15,2013-05-07 12:00:00,
2013-05-07 08:10:00,53.4,52.3,29.88,SW,219,0.0,0.0,96,0.00,,,0.00,Wunderground v.1.15,2013-05-07 12:10:00,
2013-05-07 08:20:00,54.0,52.9,29.89,SW,219,0.0,0.0,96,0.00,,,0.00,Wunderground v.1.15,2013-05-07 12:20:00,
2013-05-07 08:30:00,54.5,53.4,29.89,SW,219,0.0,0.0,96,0.00,,,0.00,Wunderground v.1.15,2013-05-07 12:30:00,
2013-05-07 08:40:00,55.2,54.1,29.90,SW,219,0.0,1.0,96,0.00,,,0.00,Wunderground v.1.15,2013-05-07 12:40:00,
2013-05-07 08:50:00,55.4,55.1,29.91,SW,219,0.0,0.0,99,0.00,,,0.00,Wunderground v.1.15,2013-05-07 12:50:00,
2013-05-07 09:00:00,55.4,54.3,29.91,SW,228,0.0,0.0,96,0.00,,,0.00,Wunderground v.1.15,2013-05-07 13:00:00,
2013-05-07 09:10:00,55.5,54.4,29.91,SW,227,0.0,0.0,96,0.00,,,0.00,Wunderground v.1.15,2013-05-07 13:10:00,
2013-05-07 09:20:00,55.7,54.6,29.91,SW,228,0.0,0.0,96,0.00,,,0.00,Wunderground v.1.15,2013-05-07 13:20:00,
2013-05-07 09:30:00,56.0,54.9,29.92,SW,228,0.0,0.0,96,0.00,,,0.00,Wunderground v.1.15,2013-05-07 13:30:00,
2013-05-07 09:40:00,56.7,55.6,29.92,SW,228,0.0,0.0,96,0.00,,,0.00,Wunderground v.1.15,2013-05-07 13:40:00,
2013-05-07 09:50:00,56.5,55.4,29.92,SW,228,0.0,0.0,96,0.00,,,0.00,Wunderground v.1.15,2013-05-07 13:50:00,
2013-05-07 10:00:00,56.8,55.7,29.92,SW,227,0.0,0.0,96,0.00,,,0.00,Wunderground v.1.15,2013-05-07 14:00:00,
2013-05-07 10:10:00,57.0,55.9,29.92,SW,227,0.0,0.0,96,0.00,,,0.00,Wunderground v.1.15,2013-05-07 14:10:00,
2013-05-07 10:20:00,57.3,56.2,29.93,SW,228,0.0,0.0,96,0.00,,,0.00,Wunderground v.1.15,2013-05-07 14:20:00,
2013-05-07 10:30:00,57.4,56.3,29.93,SW,228,0.0,1.0,96,0.00,,,0.00,Wunderground v.1.15,2013-05-07 14:30:00,
2013-05-07 10:40:00,57.6,56.2,29.93,SW,228,0.0,0.0,95,0.00,,,0.00,Wunderground v.1.15,2013-05-07 14:40:00,
2013-05-07 10:50:00,58.6,57.2,29.93,SW,227,0.0,0.0,95,0.00,,,0.00,Wunderground v.1.15,2013-05-07 14:50:00,
2013-05-07 11:00:00,59.0,57.3,29.93,SSW,209,0.0,0.0,94,0.00,,,0.00,Wunderground v.1.15,2013-05-07 15:00:00,
2013-05-07 11:10:00,60.0,58.0,29.93,SSW,209,0.0,0.0,93,0.00,,,0.00,Wunderground v.1.15,2013-05-07 15:10:00,
2013-05-07 11:20:00,60.4,58.1,29.93,SSW,209,1.0,1.0,92,0.00,,,0.00,Wunderground v.1.15,2013-05-07 15:20:00,
2013-05-07 11:30:00,61.1,58.8,29.93,SSW,209,0.0,0.0,92,0.00,,,0.00,Wunderground v.1.15,2013-05-07 15:30:00,
2013-05-07 11:40:00,61.9,58.9,29.93,SE,138,0.0,0.0,90,0.00,,,0.00,Wunderground v.1.15,2013-05-07 15:40:00,
2013-05-07 11:50:00,62.3,59.0,29.92,SE,145,1.0,2.0,89,0.00,,,0.00,Wunderground v.1.15,2013-05-07 15:50:00,
2013-05-07 12:00:00,62.9,59.3,29.93,WSW,253,1.0,3.0,88,0.00,,,0.00,Wunderground v.1.15,2013-05-07 16:00:00,
2013-05-07 12:10:00,62.7,58.8,29.92,West,268,1.0,1.0,87,0.00,,,0.00,Wunderground v.1.15,2013-05-07 16:10:00,
2013-05-07 12:20:00,63.5,59.2,29.92,SW,215,1.0,3.0,86,0.00,,,0.00,Wunderground v.1.15,2013-05-07 16:20:00,
2013-05-07 12:30:00,65.0,60.4,29.91,SW,217,2.0,2.0,85,0.00,,,0.00,Wunderground v.1.15,2013-05-07 16:30:00,
2013-05-07 12:40:00,64.6,59.3,29.91,SSW,213,1.0,1.0,83,0.00,,,0.00,Wunderground v.1.15,2013-05-07 16:40:00,
2013-05-07 12:50:00,64.3,59.0,29.91,ESE,103,1.0,1.0,83,0.00,,,0.00,Wunderground v.1.15,2013-05-07 16:50:00,
2013-05-07 13:00:00,64.1,58.1,29.91,SW,219,1.0,2.0,81,0.00,,,0.00,Wunderground v.1.15,2013-05-07 17:00:00,
2013-05-07 13:10:00,64.1,58.1,29.91,WSW,237,1.0,1.0,81,0.00,,,0.00,Wunderground v.1.15,2013-05-07 17:10:00,
2013-05-07 13:20:00,64.9,58.9,29.91,WSW,240,1.0,1.0,81,0.00,,,0.00,Wunderground v.1.15,2013-05-07 17:20:00,
2013-05-07 13:30:00,66.4,60.0,29.91,SSW,200,1.0,1.0,80,0.00,,,0.00,Wunderground v.1.15,2013-05-07 17:30:00,
2013-05-07 13:40:00,67.1,58.2,29.90,South,190,1.0,2.0,73,0.00,,,0.00,Wunderground v.1.15,2013-05-07 17:40:00,
2013-05-07 13:50:00,67.4,58.4,29.90,ESE,121,1.0,1.0,73,0.00,,,0.00,Wunderground v.1.15,2013-05-07 17:50:00,
2013-05-07 14:00:00,67.1,58.2,29.90,SSW,200,1.0,3.0,73,0.00,,,0.00,Wunderground v.1.15,2013-05-07 18:00:00,
2013-05-07 14:10:00,65.8,55.3,29.89,SW,231,1.0,3.0,69,0.00,,,0.00,Wunderground v.1.15,2013-05-07 18:10:00,
2013-05-07 14:20:00,65.0,55.8,29.89,South,173,1.0,1.0,72,0.00,,,0.00,Wunderground v.1.15,2013-05-07 18:20:00,
2013-05-07 14:30:00,64.9,56.4,29.89,South,173,0.0,0.0,74,0.00,,,0.00,Wunderground v.1.15,2013-05-07 18:30:00,
2013-05-07 14:40:00,65.0,54.6,29.89,West,269,1.0,2.0,69,0.00,,,0.00,Wunderground v.1.15,2013-05-07 18:40:00,
2013-05-07 14:50:00,66.5,56.8,29.88,SSW,200,1.0,2.0,71,0.00,,,0.00,Wunderground v.1.15,2013-05-07 18:50:00,
2013-05-07 15:00:00,67.7,55.5,29.88,WSW,253,2.0,3.0,65,0.00,,,0.00,Wunderground v.1.15,2013-05-07 19:00:00,
2013-05-07 15:10:00,67.9,54.8,29.88,SW,223,2.0,3.0,63,0.00,,,0.00,Wunderground v.1.15,2013-05-07 19:10:00,
2013-05-07 15:20:00,68.0,55.4,29.88,SW,224,1.0,2.0,64,0.00,,,0.00,Wunderground v.1.15,2013-05-07 19:20:00,
2013-05-07 15:30:00,68.3,55.2,29.88,West,264,1.0,2.0,63,0.00,,,0.00,Wunderground v.1.15,2013-05-07 19:30:00,
2013-05-07 15:40:00,67.2,53.7,29.87,West,268,1.0,1.0,62,0.00,,,0.00,Wunderground v.1.15,2013-05-07 19:40:00,
2013-05-07 15:50:00,66.3,53.3,29.87,West,268,0.0,1.0,63,0.00,,,0.00,Wunderground v.1.15,2013-05-07 19:50:00,
2013-05-07 16:00:00,66.5,52.2,29.87,SW,230,0.0,0.0,60,0.00,,,0.00,Wunderground v.1.15,2013-05-07 20:00:00,
2013-05-07 16:10:00,67.3,52.9,29.87,ESE,115,1.0,1.0,60,0.00,,,0.00,Wunderground v.1.15,2013-05-07 20:10:00,
2013-05-07 16:20:00,68.2,55.1,29.87,ESE,102,1.0,1.0,63,0.00,,,0.00,Wunderground v.1.15,2013-05-07 20:20:00,
2013-05-07 16:30:00,67.9,52.1,29.87,WNW,292,1.0,4.0,57,0.00,,,0.00,Wunderground v.1.15,2013-05-07 20:30:00,
2013-05-07 16:40:00,66.8,52.0,29.87,SW,223,1.0,1.0,59,0.00,,,0.00,Wunderground v.1.15,2013-05-07 20:40:00,
2013-05-07 16:50:00,66.7,51.5,29.87,SSW,201,1.0,1.0,58,0.00,,,0.00,Wunderground v.1.15,2013-05-07 20:50:00,
2013-05-07 17:00:00,66.7,52.8,29.87,ESE,122,0.0,0.0,61,0.00,,,0.00,Wunderground v.1.15,2013-05-07 21:00:00,
2013-05-07 17:10:00,66.7,52.4,29.87,West,264,1.0,1.0,60,0.00,,,0.00,Wunderground v.1.15,2013-05-07 21:10:00,
2013-05-07 17:20:00,66.9,54.7,29.88,South,184,0.0,0.0,65,0.00,,,0.00,Wunderground v.1.15,2013-05-07 21:20:00,
2013-05-07 17:30:00,66.5,52.6,29.88,South,183,0.0,0.0,61,0.00,,,0.00,Wunderground v.1.15,2013-05-07 21:30:00,
2013-05-07 17:40:00,66.6,55.3,29.88,South,183,0.0,0.0,67,0.00,,,0.00,Wunderground v.1.15,2013-05-07 21:40:00,
2013-05-07 17:50:00,66.5,54.8,29.88,South,183,0.0,0.0,66,0.00,,,0.00,Wunderground v.1.15,2013-05-07 21:50:00,
2013-05-07 18:00:00,66.4,54.7,29.88,South,182,1.0,1.0,66,0.00,,,0.00,Wunderground v.1.15,2013-05-07 22:00:00,
2013-05-07 18:10:00,66.0,55.1,29.89,SSW,209,1.0,1.0,68,0.00,,,0.00,Wunderground v.1.15,2013-05-07 22:10:00,
2013-05-07 18:20:00,65.7,54.8,29.89,SE,140,1.0,1.0,68,0.00,,,0.00,Wunderground v.1.15,2013-05-07 22:20:00,
2013-05-07 18:30:00,64.7,54.3,29.88,West,265,1.0,1.0,69,0.00,,,0.00,Wunderground v.1.15,2013-05-07 22:30:00,
2013-05-07 18:40:00,63.8,54.2,29.89,SSW,196,1.0,1.0,71,0.00,,,0.00,Wunderground v.1.15,2013-05-07 22:40:00,
2013-05-07 18:50:00,63.2,53.3,29.89,West,264,1.0,1.0,70,0.00,,,0.00,Wunderground v.1.15,2013-05-07 22:50:00,
2013-05-07 19:00:00,62.6,53.1,29.89,WSW,250,1.0,1.0,71,0.00,,,0.00,Wunderground v.1.15,2013-05-07 23:00:00,
2013-05-07 19:10:00,62.0,52.1,29.89,WSW,256,1.0,1.0,70,0.00,,,0.00,Wunderground v.1.15,2013-05-07 23:10:00,
2013-05-07 19:20:00,61.4,51.9,29.89,WSW,244,1.0,1.0,71,0.00,,,0.00,Wunderground v.1.15,2013-05-07 23:20:00,
2013-05-07 19:30:00,61.0,51.9,29.89,WSW,245,0.0,0.0,72,0.00,,,0.00,Wunderground v.1.15,2013-05-07 23:30:00,
2013-05-07 19:40:00,60.7,51.6,29.89,WSW,245,0.0,0.0,72,0.00,,,0.00,Wunderground v.1.15,2013-05-07 23:40:00,
2013-05-07 19:50:00,60.0,51.3,29.90,WSW,245,0.0,0.0,73,0.00,,,0.00,Wunderground v.1.15,2013-05-07 23:50:00,
2013-05-07 20:00:00,59.3,51.4,29.90,WSW,245,0.0,0.0,75,0.00,,,0.00,Wunderground v.1.15,2013-05-08 00:00:00,
2013-05-07 20:10:00,58.8,50.9,29.90,SSW,197,0.0,0.0,75,0.00,,,0.00,Wunderground v.1.15,2013-05-08 00:10:00,
2013-05-07 20:20:00,57.7,50.5,29.91,SSW,197,0.0,0.0,77,0.00,,,0.00,Wunderground v.1.15,2013-05-08 00:20:00,
2013-05-07 20:30:00,56.8,50.4,29.92,SSW,205,0.0,0.0,79,0.00,,,0.00,Wunderground v.1.15,2013-05-08 00:30:00,
2013-05-07 20:40:00,56.3,50.5,29.92,SSW,205,0.0,0.0,81,0.00,,,0.00,Wunderground v.1.15,2013-05-08 00:40:00,
2013-05-07 20:50:00,56.0,50.3,29.92,SSW,205,0.0,0.0,81,0.00,,,0.00,Wunderground v.1.15,2013-05-08 00:50:00,
2013-05-07 21:00:00,55.8,50.1,29.93,SSW,205,0.0,0.0,81,0.00,,,0.00,Wunderground v.1.15,2013-05-08 01:00:00,
2013-05-07 21:10:00,55.6,50.2,29.93,SSW,205,0.0,0.0,82,0.00,,,0.00,Wunderground v.1.15,2013-05-08 01:10:00,
2013-05-07 21:20:00,55.4,50.0,29.93,SSW,205,0.0,0.0,82,0.00,,,0.00,Wunderground v.1.15,2013-05-08 01:20:00,
2013-05-07 21:30:00,55.3,50.5,29.94,SSW,205,0.0,0.0,84,0.00,,,0.00,Wunderground v.1.15,2013-05-08 01:30:00,
2013-05-07 21:40:00,55.3,50.5,29.94,SSW,205,0.0,0.0,84,0.00,,,0.00,Wunderground v.1.15,2013-05-08 01:40:00,
2013-05-07 21:50:00,55.3,50.5,29.94,SSW,205,0.0,0.0,84,0.00,,,0.00,Wunderground v.1.15,2013-05-08 01:50:00,
2013-05-07 22:00:00,55.1,50.7,29.94,SSW,205,0.0,0.0,85,0.00,,,0.00,Wunderground v.1.15,2013-05-08 02:00:00,
2013-05-07 22:10:00,54.8,50.4,29.94,SSW,205,0.0,0.0,85,0.00,,,0.00,Wunderground v.1.15,2013-05-08 02:10:00,
2013-05-07 22:20:00,54.6,50.5,29.95,SSW,205,0.0,0.0,86,0.00,,,0.00,Wunderground v.1.15,2013-05-08 02:20:00,
2013-05-07 22:30:00,54.5,50.4,29.95,SSW,205,0.0,0.0,86,0.00,,,0.00,Wunderground v.1.15,2013-05-08 02:30:00,
2013-05-07 22:40:00,54.2,50.4,29.95,SSW,205,0.0,0.0,87,0.00,,,0.00,Wunderground v.1.15,2013-05-08 02:40:00,
2013-05-07 22:50:00,53.8,50.0,29.95,SSW,205,0.0,0.0,87,0.00,,,0.00,Wunderground v.1.15,2013-05-08 02:50:00,
2013-05-07 23:00:00,53.5,49.7,29.95,SSW,205,0.0,0.0,87,0.00,,,0.00,Wunderground v.1.15,2013-05-08 03:00:00,
2013-05-07 23:10:00,53.3,49.5,29.95,SSW,205,0.0,0.0,87,0.00,,,0.00,Wunderground v.1.15,2013-05-08 03:10:00,
2013-05-07 23:20:00,53.0,49.5,29.95,SSW,205,0.0,0.0,88,0.00,,,0.00,Wunderground v.1.15,2013-05-08 03:20:00,
2013-05-07 23:30:00,52.6,49.1,29.95,SSW,205,0.0,0.0,88,0.00,,,0.00,Wunderground v.1.15,2013-05-08 03:30:00,
2013-05-07 23:40:00,52.3,48.9,29.95,SSW,205,0.0,0.0,88,0.00,,,0.00,Wunderground v.1.15,2013-05-08 03:40:00,
2013-05-07 23:50:00,52.0,48.9,29.95,SSW,205,0.0,0.0,89,0.00,,,0.00,Wunderground v.1.15,2013-05-08 03:50:00,